Powrót do katalogu

NOAA 16 DEB

AktywnyPO
NORAD 41267·DEBRIS·🇺🇸 United States

Wystrzelony Sep 21, 2000 z Vandenberg Space Force Base

Loading…

Następne Przeloty (najbliższe 24 godziny)

TLE

ŚwieżeSource: Space-Track

Epoka: Sep 13, 2026, 10:00 UTC

1 41267U 00055FT  26256.41729845  .00062464  00000-0  32016-2 0  9997
2 41267  98.7934 111.2437 0011529 348.2318  11.8640 15.16262084564378

Śledź NOAA 16 DEB w czasie rzeczywistym z AllMySat

Download on the App Store